Wind_Speed
7 6 6 12 9 9 10 10 11 13 18 21 17 14 14 16 12 11 10 18 19 14 13 11 10 9 8 9 9 10 10 7 8 10 12 13 12 11 11 12 11 11 10 10 9 8 10 10 9
10 8 7 10 13 13 12 9 13 15 14 9 14 15 15 14 14 14 11 16 15 16 13 12 9 8 8 9 10 8 7 7 9 11 12 13 10 10 10 10 10 9 9 8 8 6 6 7 6
5 11 11 16 12 16 14 12 11 12 12 7 8 9 9 12 16 15 15 15 14 14 12 11 9 8 9 8 7 5 6 8 10 11 13 12 11 10 10 9 9 9 8 7 7 5 5 6 6
5 6 10 13 17 16 11 16 12 12 12 7 9 11 7 12 18 18 14 14 12 10 8 8 7 8 7 7 6 6 7 8 8 11 11 11 12 11 9 9 9 9 9 8 6 5 4 4 5
10 8 15 22 18 18 18 16 14 9 8 9 5 13 13 14 16 18 15 13 12 10 8 7 7 7 8 8 7 6 8 7 8 10 11 12 11 9 7 7 9 10 10 10 8 7 7 5 4
13 5 16 17 18 17 21 13 9 8 9 7 10 14 13 13 14 15 14 11 7 10 10 8 8 9 10 9 8 7 8 8 9 11 12 11 10 9 7 7 9 12 12 11 9 10 9 7 6
13 10 4 13 16 16 20 15 13 13 9 7 5 13 13 8 9 13 11 8 7 8 11 10 11 11 11 10 10 10 10 10 12 13 14 13 13 11 11 11 13 13 14 13 13 16 12 12 11
8 9 3 8 19 15 20 16 16 14 11 7 5 7 12 11 8 7 7 5 6 10 11 12 13 12 12 12 13 12 13 13 14 13 13 14 15 13 13 15 15 18 18 18 19 20 17 17 14
2 4 8 10 13 10 13 21 23 13 11 7 5 6 6 9 9 6 4 4 7 11 12 13 14 13 12 12 12 13 14 14 13 14 15 17 16 15 16 16 18 19 18 17 16 19 17 16 15
4 8 9 6 9 12 13 19 22 16 9 6 2 5 9 8 9 8 6 6 11 13 13 13 14 14 14 13 13 13 12 12 14 13 15 16 15 14 14 15 15 17 15 15 15 16 16 14 13
8 11 10 7 13 14 15 16 21 20 15 13 4 1 6 9 10 9 7 9 14 14 16 16 14 14 14 13 13 13 13 13 12 13 13 13 15 12 12 14 14 14 14 14 13 14 14 12 12
17 13 8 8 11 13 18 18 16 14 14 11 7 3 2 4 8 9 9 13 13 16 18 17 14 15 14 13 13 13 12 12 12 12 12 12 11 12 12 12 12 13 12 13 12 13 13 11 10
20 15 14 7 9 3 15 15 16 14 16 16 10 5 2 1 4 8 10 14 17 19 18 17 15 14 12 11 12 13 12 11 11 11 11 12 10 11 10 9 11 11 11 11 11 12 13 12 11
16 20 19 15 15 3 13 17 17 13 14 17 15 6 2 4 6 9 11 15 20 19 18 16 15 13 12 11 11 13 13 10 9 9 10 9 9 8 7 8 10 10 11 11 11 11 10 11 10
22 21 16 9 7 3 8 15 20 12 12 15 15 13 3 7 7 9 13 17 19 19 18 15 14 13 12 12 11 11 13 11 10 9 8 8 7 7 4 7 7 7 9 10 12 11 11 10 9
23 24 12 12 13 13 8 6 14 14 15 17 11 9 5 8 11 11 14 17 18 17 16 14 13 12 12 12 11 9 13 12 11 10 8 8 8 6 5 7 7 8 8 10 10 11 13 11 10
29 18 16 17 18 11 13 3 9 11 11 17 10 5 5 5 8 12 14 16 18 16 15 12 11 12 12 11 11 8 9 10 10 10 9 7 6 5 5 6 8 11 11 10 11 11 10 10 10
23 19 16 20 19 15 10 6 6 7 10 12 5 6 8 8 9 14 15 16 15 15 12 11 11 11 10 9 8 9 7 8 8 7 6 4 4 2 2 5 9 11 11 9 9 11 13 14 15
21 22 18 24 23 15 14 14 0 8 6 3 5 5 5 9 8 13 14 15 15 13 12 10 9 9 10 9 9 9 10 10 7 5 5 3 2 1 5 7 9 9 8 8 10 11 14 17 20
26 22 20 25 25 22 20 13 8 8 7 6 3 2 4 7 10 11 14 12 12 14 12 10 10 9 9 9 8 9 9 8 7 6 4 3 3 5 8 10 9 9 8 10 12 14 18 20 20
26 26 21 26 30 31 23 22 12 9 11 9 11 5 4 5 8 10 11 13 15 12 10 10 10 10 9 9 10 9 8 8 7 6 5 5 5 8 10 11 9 9 9 10 11 14 16 16 18
28 22 29 33 35 36 30 27 21 13 13 13 18 14 7 4 7 7 8 8 11 14 14 11 9 8 8 9 9 9 8 8 8 7 7 6 8 11 12 10 10 8 6 9 11 13 12 10 17
20 30 33 37 41 40 38 37 30 23 15 14 13 14 12 6 6 11 12 10 11 11 13 13 11 7 6 7 7 8 9 8 8 8 9 9 12 14 13 11 8 4 7 8 10 11 9 10 14
21 32 36 42 43 50 37 38 26 19 15 20 8 8 8 6 4 9 14 15 14 14 13 12 11 10 10 9 8 10 11 11 10 10 11 13 15 14 12 9 3 4 7 9 10 10 10 12 17
29 39 43 50 54 48 37 42 22 20 18 19 14 11 10 10 7 9 8 13 14 13 13 12 10 11 13 14 13 13 13 13 13 12 13 15 15 12 12 5 3 5 7 5 8 10 11 14 17
27 37 46 49 52 44 41 40 19 22 22 25 16 17 13 10 9 12 9 9 14 15 16 15 15 12 12 15 17 16 15 14 14 15 16 17 16 15 11 6 5 5 6 8 6 8 13 16 19
30 39 34 45 48 49 46 35 33 30 29 26 22 19 15 11 9 7 11 10 17 15 14 7 8 7 8 11 17 19 20 19 18 19 18 18 16 14 11 8 7 5 6 7 6 8 11 14 18
40 31 38 46 49 50 44 34 26 28 30 28 25 27 21 17 12 8 11 14 14 19 14 7 7 8 10 10 10 13 17 19 20 20 21 19 17 15 13 10 9 7 6 4 6 5 8 12 16
42 44 42 42 46 46 42 29 27 27 29 32 24 23 21 20 14 12 9 13 14 20 13 10 9 9 10 9 9 10 12 14 17 20 22 18 18 18 13 13 10 9 7 5 6 7 10 14 18
48 47 48 49 41 37 36 37 29 30 30 32 33 32 29 21 17 18 14 16 19 26 19 17 13 11 12 12 10 11 12 12 14 20 22 20 21 20 14 15 13 12 11 9 7 9 12 17 20
Wind_Direction
104 91 64 72 95 123 67 84 68 73 61 80 95 107 105 107 93 89 95 110 114 116 126 124 126 120 121 109 102 91 90 111 131 99 94 82 81 80 76 77 85 98 117 119 116 111 106 92 89
102 109 99 103 85 93 75 94 87 73 76 70 86 103 111 114 110 114 106 103 115 122 127 130 131 119 107 98 88 95 111 120 96 83 75 74 77 75 73 74 72 81 100 110 114 115 112 102 83
174 124 116 106 102 103 95 77 75 86 85 99 104 115 124 132 126 122 114 111 114 117 125 132 129 116 102 93 100 111 109 88 77 73 71 75 76 74 71 66 67 72 80 84 85 86 78 60 47
145 170 119 104 103 100 79 81 77 78 91 98 111 108 138 144 143 127 124 122 117 117 117 119 120 119 114 114 120 114 96 82 75 77 81 84 83 77 73 69 68 65 66 70 69 75 69 59 31
126 151 153 122 101 96 99 91 74 84 91 96 119 122 136 151 147 134 136 134 133 131 126 129 130 128 125 123 123 112 87 85 84 87 84 81 81 84 88 81 69 69 63 61 60 68 67 63 50
359 21 118 124 98 75 88 93 66 82 96 107 124 121 139 159 147 141 142 141 139 134 135 139 141 134 125 127 119 102 100 93 94 97 89 82 85 81 84 80 69 67 68 66 67 64 64 66 56
28 71 111 121 76 67 70 65 50 58 111 114 125 131 137 165 163 151 147 145 141 143 140 146 140 130 125 126 110 102 99 98 101 95 92 91 90 86 83 80 72 66 67 72 68 67 61 56 60
47 95 81 126 62 71 54 63 45 48 68 113 144 156 151 163 184 171 154 150 152 147 148 146 139 131 131 124 105 101 103 99 97 98 97 94 87 82 83 82 81 73 72 73 66 72 70 66 61
110 123 124 94 61 46 63 67 48 45 54 69 139 166 165 166 179 187 188 170 149 151 148 144 138 134 127 120 113 105 103 105 104 93 94 90 91 88 84 76 77 79 73 69 74 72 66 67 54
184 155 168 104 83 65 82 75 59 40 47 26 42 222 201 219 216 204 209 178 159 157 148 145 140 135 127 121 118 112 107 102 95 108 96 96 94 84 85 85 80 74 77 72 61 59 58 51 46
176 175 166 99 37 65 86 75 73 41 23 25 16 235 225 236 223 198 194 175 165 159 148 147 137 134 127 127 125 118 110 103 96 99 95 93 93 89 82 78 73 66 69 68 62 63 57 47 42
182 175 164 125 70 52 54 87 75 52 24 24 6 354 246 234 212 170 172 157 161 156 150 141 136 132 131 130 129 120 115 111 104 99 97 94 91 87 75 67 62 59 54 50 51 56 58 55 49
176 194 205 170 137 47 68 71 75 63 31 15 9 8 340 196 208 154 173 159 155 151 148 140 135 133 135 134 127 125 121 115 108 109 107 106 97 85 73 58 52 47 45 46 36 35 37 23 37
173 197 196 158 206 219 77 74 74 68 41 7 13 4 298 159 189 157 167 165 160 152 149 142 135 132 130 133 131 125 128 126 122 113 109 107 97 75 59 52 47 32 28 25 25 28 25 17 8
193 195 220 205 233 217 233 67 68 69 55 360 353 7 327 166 183 178 168 170 164 156 150 143 135 130 127 126 131 132 131 130 135 132 123 116 87 80 74 44 39 31 17 14 12 7 15 7 349
212 199 241 227 268 210 224 17 70 63 46 9 316 23 27 181 179 186 175 169 167 160 152 148 138 138 134 133 135 142 141 136 140 134 122 107 101 78 57 35 19 15 5 357 352 350 1 358 351
215 204 223 242 251 210 230 255 56 49 28 357 318 60 81 166 179 186 175 172 171 167 159 156 148 145 141 144 140 136 131 134 125 117 110 101 93 70 48 30 355 351 341 340 340 348 346 340 338
221 212 219 245 236 216 200 174 45 43 32 342 4 61 125 165 173 169 180 176 176 174 171 163 153 145 152 159 150 149 159 144 137 125 115 115 102 78 15 7 336 338 333 337 333 340 340 338 337
225 214 209 225 234 227 219 198 31 333 27 335 74 64 115 153 167 160 187 184 181 185 182 173 160 157 163 162 172 177 174 166 159 157 165 170 134 2 329 330 334 319 319 325 336 340 339 338 337
234 221 201 220 220 230 234 248 215 251 291 191 253 22 125 148 171 169 175 200 195 195 196 180 172 183 176 173 184 189 193 179 191 189 202 240 306 323 314 313 317 304 320 329 341 340 340 343 340
230 228 206 213 212 231 242 250 221 176 245 237 183 163 161 165 174 188 180 182 201 206 209 203 190 188 190 188 196 202 207 196 208 226 246 276 289 292 299 305 293 297 320 341 350 347 347 351 351
226 224 209 203 209 224 240 240 232 217 221 219 178 165 151 175 197 189 191 210 210 216 220 219 213 199 186 191 204 215 212 214 228 242 253 267 281 291 289 284 281 305 336 347 350 348 348 5 8
210 223 208 208 213 224 231 238 246 232 217 197 170 168 156 151 204 185 179 192 212 216 215 211 214 208 203 207 218 225 230 228 230 244 262 273 287 296 283 266 283 326 326 336 344 347 328 328 345
207 217 211 210 217 232 229 240 233 220 147 166 175 198 179 150 186 219 201 196 205 201 204 205 209 222 225 223 224 233 245 244 247 250 261 272 284 282 258 263 259 312 312 333 331 338 334 331 343
206 207 214 214 219 241 230 239 227 219 219 206 181 190 203 206 217 219 234 230 224 231 238 241 245 248 247 242 234 237 241 248 254 260 264 269 281 272 262 241 258 289 300 306 314 325 328 333 339
240 219 228 227 230 242 233 239 228 213 221 224 193 170 190 153 206 238 238 270 281 279 266 272 270 260 251 244 240 239 240 239 246 259 264 268 270 258 235 199 240 272 268 288 305 324 335 335 334
234 235 236 235 238 242 251 253 240 223 209 208 185 187 182 170 135 199 216 305 260 270 280 270 288 273 254 246 242 242 242 242 244 252 256 258 255 237 203 197 232 252 266 287 303 316 327 338 343
230 234 233 234 234 242 249 251 244 223 217 212 211 205 194 181 184 197 242 276 263 238 233 237 269 258 248 248 239 240 243 246 246 242 244 246 236 215 203 216 220 230 242 279 292 317 334 340 344
230 231 233 235 238 240 251 255 250 240 222 214 222 224 211 201 186 189 226 258 266 221 232 241 247 252 238 244 251 243 247 251 246 238 230 232 220 210 215 217 220 232 234 267 300 322 334 350 351
232 232 238 239 245 251 251 249 250 250 241 234 225 227 226 209 189 190 218 244 220 217 242 252 231 234 235 246 248 249 252 255 244 232 218 221 212 217 225 221 227 233 240 260 290 326 327 334 339
Height
5882 5882 5882 5880 5882 5882 5882 5882 5881 5881 5881 5880 5881 5883 5885 5886 5887 5890 5888 5886 5886 5888 5889 5890 5890 5891 5891 5891 5892 5892 5893 5895 5897 5896 5895 5894 5894 5894 5893 5894 5895 5896 5897 5898 5898 5898 5899 5899 5899
5882 5883 5883 5883 5884 5882 5883 5882 5881 5882 5884 5884 5883 5883 5885 5887 5887 5888 5890 5889 5890 5890 5891 5891 5891 5891 5892 5892 5892 5894 5896 5897 5896 5896 5895 5896 5896 5895 5896 5896 5897 5898 5899 5901 5900 5901 5901 5901 5901
5882 5882 5886 5884 5884 5883 5881 5882 5884 5883 5885 5886 5886 5886 5886 5887 5888 5888 5889 5891 5891 5891 5892 5893 5892 5892 5893 5893 5894 5895 5897 5897 5896 5896 5897 5898 5898 5898 5898 5898 5899 5900 5901 5901 5902 5903 5903 5903 5902
5880 5882 5885 5885 5885 5885 5883 5884 5885 5885 5885 5888 5887 5886 5889 5889 5889 5888 5891 5892 5892 5892 5893 5892 5893 5894 5894 5895 5896 5897 5898 5898 5898 5899 5900 5900 5900 5900 5900 5901 5902 5903 5903 5903 5904 5904 5904 5904 5903
5883 5883 5884 5887 5887 5885 5883 5884 5885 5887 5887 5887 5888 5887 5890 5892 5891 5890 5892 5893 5893 5894 5893 5893 5894 5895 5896 5896 5897 5899 5899 5899 5900 5901 5902 5902 5902 5901 5902 5902 5903 5905 5905 5905 5905 5905 5905 5904 5904
5887 5886 5884 5885 5887 5888 5884 5885 5885 5887 5887 5889 5888 5888 5892 5894 5893 5893 5894 5894 5895 5894 5894 5896 5897 5897 5898 5898 5899 5900 5900 5901 5902 5903 5903 5904 5903 5903 5904 5904 5905 5906 5906 5907 5905 5906 5906 5904 5904
5887 5886 5885 5885 5890 5890 5886 5886 5886 5887 5886 5889 5890 5889 5892 5895 5895 5895 5895 5895 5895 5895 5896 5897 5898 5899 5900 5901 5902 5902 5902 5903 5903 5904 5905 5906 5905 5905 5906 5906 5907 5907 5908 5908 5907 5907 5907 5906 5905
5887 5887 5885 5886 5887 5891 5889 5888 5887 5888 5888 5889 5891 5891 5892 5895 5897 5897 5896 5896 5896 5897 5897 5898 5900 5901 5902 5903 5904 5904 5904 5905 5906 5906 5906 5907 5906 5906 5907 5908 5907 5908 5910 5911 5911 5910 5909 5908 5907
5885 5888 5887 5886 5889 5893 5891 5889 5888 5887 5888 5889 5890 5891 5893 5894 5896 5897 5897 5896 5897 5897 5898 5900 5902 5903 5903 5904 5906 5907 5907 5907 5908 5908 5908 5909 5909 5909 5910 5910 5910 5911 5912 5913 5913 5912 5911 5911 5910
5885 5885 5887 5886 5892 5893 5891 5889 5888 5890 5890 5890 5891 5891 5892 5893 5894 5895 5895 5896 5897 5897 5899 5902 5903 5903 5904 5905 5908 5909 5909 5910 5910 5910 5911 5911 5912 5913 5912 5912 5913 5914 5914 5916 5916 5914 5914 5913 5912
5886 5887 5886 5886 5889 5891 5892 5892 5890 5892 5891 5892 5891 5890 5892 5891 5894 5894 5895 5895 5895 5898 5900 5902 5904 5904 5905 5907 5909 5910 5911 5912 5912 5913 5913 5913 5915 5915 5915 5915 5915 5916 5918 5918 5919 5917 5916 5915 5914
5885 5889 5886 5886 5888 5892 5891 5893 5890 5892 5893 5892 5892 5890 5890 5891 5893 5894 5895 5895 5897 5899 5901 5903 5905 5906 5906 5908 5910 5911 5912 5913 5914 5915 5915 5915 5917 5917 5917 5917 5917 5918 5919 5919 5919 5918 5917 5918 5916
5881 5886 5887 5883 5884 5887 5890 5892 5892 5892 5893 5893 5892 5890 5889 5891 5893 5894 5895 5896 5897 5899 5902 5903 5905 5907 5908 5910 5911 5912 5914 5915 5915 5916 5917 5918 5918 5919 5919 5919 5919 5919 5920 5920 5920 5919 5918 5917 5916
5878 5881 5883 5881 5879 5884 5889 5890 5890 5892 5892 5893 5895 5892 5889 5890 5893 5894 5896 5896 5898 5900 5902 5904 5906 5908 5910 5911 5912 5914 5915 5916 5917 5918 5918 5920 5920 5919 5920 5920 5919 5919 5919 5920 5919 5919 5919 5917 5916
5877 5880 5883 5882 5881 5883 5886 5888 5887 5892 5891 5894 5895 5894 5889 5888 5891 5893 5895 5898 5899 5901 5903 5905 5907 5909 5911 5912 5913 5915 5915 5917 5919 5920 5920 5920 5920 5920 5922 5922 5922 5921 5921 5920 5919 5918 5918 5918 5917
5877 5881 5884 5883 5882 5884 5884 5886 5886 5889 5891 5894 5895 5893 5890 5889 5891 5893 5895 5899 5901 5903 5904 5905 5907 5910 5911 5913 5914 5916 5917 5919 5921 5920 5920 5921 5921 5922 5923 5923 5923 5922 5922 5920 5919 5918 5917 5917 5915
5873 5880 5882 5883 5882 5884 5885 5888 5886 5886 5890 5893 5893 5893 5891 5891 5892 5894 5896 5899 5901 5903 5904 5906 5907 5910 5912 5915 5916 5916 5917 5919 5921 5921 5921 5922 5922 5923 5923 5923 5922 5921 5920 5919 5917 5916 5915 5914 5913
5871 5876 5880 5881 5882 5881 5883 5886 5885 5885 5888 5893 5892 5892 5892 5892 5892 5894 5897 5899 5901 5903 5904 5906 5908 5909 5911 5914 5916 5918 5919 5919 5920 5922 5922 5924 5924 5924 5924 5923 5921 5919 5918 5917 5916 5914 5913 5912 5911
5868 5872 5875 5877 5878 5879 5880 5880 5882 5883 5888 5890 5889 5891 5892 5892 5893 5895 5898 5900 5902 5903 5905 5905 5907 5910 5912 5914 5917 5919 5921 5921 5921 5922 5923 5923 5923 5924 5923 5921 5921 5920 5919 5917 5915 5915 5914 5912 5909
5862 5866 5871 5875 5875 5875 5876 5876 5876 5880 5887 5888 5888 5887 5889 5892 5894 5895 5898 5901 5903 5904 5905 5906 5908 5911 5913 5914 5917 5919 5920 5921 5921 5921 5921 5921 5921 5921 5920 5920 5919 5919 5917 5917 5916 5915 5914 5912 5909
5858 5862 5868 5872 5870 5869 5872 5873 5874 5875 5884 5887 5886 5886 5887 5890 5894 5896 5897 5899 5902 5904 5906 5906 5908 5911 5912 5914 5916 5918 5919 5919 5919 5919 5920 5921 5920 5920 5919 5918 5918 5918 5917 5916 5915 5915 5913 5911 5907
5854 5861 5863 5866 5866 5865 5867 5868 5869 5873 5879 5884 5883 5884 5886 5889 5892 5895 5895 5898 5902 5903 5905 5907 5908 5910 5911 5913 5915 5916 5917 5917 5917 5918 5919 5919 5919 5918 5918 5917 5917 5918 5916 5916 5915 5914 5912 5910 5907
5855 5853 5859 5860 5859 5860 5859 5860 5865 5868 5872 5880 5883 5883 5884 5887 5890 5893 5894 5896 5899 5902 5904 5905 5906 5907 5908 5911 5912 5913 5914 5915 5916 5917 5917 5918 5918 5917 5916 5916 5917 5917 5915 5915 5913 5912 5911 5909 5907
5848 5849 5851 5854 5855 5846 5856 5855 5860 5861 5870 5877 5881 5884 5884 5886 5889 5891 5893 5894 5897 5899 5901 5903 5904 5904 5906 5908 5909 5910 5911 5912 5914 5915 5916 5916 5917 5916 5915 5915 5916 5916 5915 5913 5911 5909 5908 5907 5905
5835 5839 5839 5841 5839 5836 5852 5849 5855 5860 5864 5871 5874 5880 5883 5884 5886 5889 5892 5894 5896 5897 5899 5901 5902 5903 5904 5904 5906 5907 5908 5910 5912 5914 5914 5914 5914 5913 5914 5914 5914 5914 5913 5912 5910 5908 5906 5905 5902
5830 5831 5828 5827 5829 5835 5844 5838 5851 5860 5863 5866 5869 5875 5878 5882 5884 5887 5889 5891 5894 5894 5894 5897 5898 5899 5900 5900 5901 5903 5905 5907 5908 5910 5911 5911 5911 5911 5913 5912 5912 5911 5912 5911 5909 5906 5904 5903 5900
5824 5818 5832 5829 5830 5831 5831 5838 5844 5852 5857 5861 5863 5868 5875 5880 5882 5885 5887 5887 5889 5890 5891 5891 5894 5894 5895 5896 5897 5899 5901 5903 5905 5905 5907 5908 5908 5909 5911 5910 5910 5910 5910 5908 5906 5905 5903 5901 5898
5808 5820 5818 5815 5818 5819 5822 5828 5834 5845 5853 5858 5861 5863 5869 5874 5877 5882 5882 5884 5884 5886 5887 5888 5889 5891 5893 5893 5893 5895 5896 5897 5899 5900 5902 5904 5905 5907 5907 5906 5907 5907 5908 5906 5904 5903 5900 5899 5896
5804 5804 5807 5810 5811 5815 5817 5819 5831 5838 5847 5852 5857 5861 5864 5867 5871 5875 5879 5879 5880 5882 5883 5883 5885 5887 5889 5891 5891 5892 5892 5893 5893 5894 5896 5899 5902 5903 5904 5903 5904 5904 5904 5903 5902 5900 5898 5896 5894
5791 5795 5799 5798 5808 5810 5812 5811 5826 5833 5839 5846 5852 5854 5857 5860 5862 5866 5871 5872 5873 5877 5879 5880 5881 5883 5885 5887 5889 5889 5889 5888 5888 5888 5891 5894 5898 5900 5900 5899 5900 5901 5901 5900 5899 5897 5895 5892 5891